TimeCDT,TemperatureF,Dew PointF,Humidity,Sea Level PressureIn,VisibilityMPH,Wind Direction,Wind SpeedMPH,Gust SpeedMPH,PrecipitationIn,Events,Conditions,WindDirDegrees,DateUTC
12:15 AM,26.6,17.6,69,30.27,10.0,Calm,Calm,-,N/A,,Clear,0,2012-10-07 05:15:00
12:35 AM,24.8,15.8,69,30.26,10.0,Calm,Calm,-,N/A,,Clear,0,2012-10-07 05:35:00
12:54 AM,24.8,17.6,74,30.26,10.0,Calm,Calm,-,N/A,,Clear,0,2012-10-07 05:54:00
1:15 AM,24.8,17.6,74,30.25,10.0,Calm,Calm,-,N/A,,Clear,0,2012-10-07 06:15:00
1:35 AM,24.8,17.6,74,30.26,10.0,Calm,Calm,-,N/A,,Clear,0,2012-10-07 06:35:00
1:55 AM,23.0,15.8,74,30.25,10.0,Calm,Calm,-,N/A,,Clear,0,2012-10-07 06:55:00
2:15 AM,21.2,15.8,80,30.25,10.0,Calm,Calm,-,N/A,,Clear,0,2012-10-07 07:15:00
2:35 AM,23.0,17.6,80,30.25,10.0,Calm,Calm,-,N/A,,Clear,0,2012-10-07 07:35:00
2:55 AM,21.2,15.8,80,30.24,10.0,Calm,Calm,-,N/A,,Clear,0,2012-10-07 07:55:00
3:15 AM,21.2,15.8,80,30.24,10.0,Calm,Calm,-,N/A,,Clear,0,2012-10-07 08:15:00
3:35 AM,21.2,14.0,74,30.23,10.0,Calm,Calm,-,N/A,,Clear,0,2012-10-07 08:35:00
3:55 AM,21.2,15.8,80,30.22,10.0,Calm,Calm,-,N/A,,Clear,0,2012-10-07 08:55:00
4:15 AM,21.2,15.8,80,30.22,10.0,Calm,Calm,-,N/A,,Clear,0,2012-10-07 09:15:00
4:35 AM,21.2,15.8,80,30.22,10.0,Calm,Calm,-,N/A,,Clear,0,2012-10-07 09:35:00
4:55 AM,19.4,14.0,80,30.21,10.0,Calm,Calm,-,N/A,,Clear,0,2012-10-07 09:55:00
5:15 AM,19.4,14.0,80,30.21,10.0,Calm,Calm,-,N/A,,Clear,0,2012-10-07 10:15:00
5:35 AM,19.4,14.0,80,30.21,10.0,Calm,Calm,-,N/A,,Clear,0,2012-10-07 10:35:00
5:55 AM,19.4,14.0,80,30.20,10.0,Calm,Calm,-,N/A,,Clear,0,2012-10-07 10:55:00
6:15 AM,19.4,15.8,86,30.20,10.0,Calm,Calm,-,N/A,,Clear,0,2012-10-07 11:15:00
6:35 AM,19.4,14.0,80,30.20,10.0,Calm,Calm,-,N/A,,Clear,0,2012-10-07 11:35:00
6:55 AM,19.4,15.8,86,30.20,10.0,Calm,Calm,-,N/A,,Clear,0,2012-10-07 11:55:00
7:15 AM,19.4,15.8,86,30.20,10.0,Calm,Calm,-,N/A,,Clear,0,2012-10-07 12:15:00
7:35 AM,19.4,14.0,80,30.19,10.0,Calm,Calm,-,N/A,,Clear,0,2012-10-07 12:35:00
7:55 AM,21.2,15.8,80,30.19,10.0,Calm,Calm,-,N/A,,Clear,0,2012-10-07 12:55:00
8:15 AM,23.0,17.6,80,30.19,10.0,Calm,Calm,-,N/A,,Clear,0,2012-10-07 13:15:00
8:35 AM,26.6,19.4,74,30.19,10.0,Calm,Calm,-,N/A,,Clear,0,2012-10-07 13:35:00
8:55 AM,30.2,21.2,69,30.19,10.0,Calm,Calm,-,N/A,,Clear,0,2012-10-07 13:55:00
9:15 AM,32.0,21.2,64,30.18,10.0,SSW,6.9,-,N/A,,Clear,200,2012-10-07 14:15:00
9:35 AM,35.6,21.2,56,30.18,10.0,SSW,12.7,-,N/A,,Clear,210,2012-10-07 14:35:00
9:54 AM,37.4,21.2,52,30.17,10.0,SW,12.7,-,N/A,,Clear,220,2012-10-07 14:54:00
10:15 AM,41.0,19.4,42,30.17,10.0,SW,12.7,16.1,N/A,,Clear,220,2012-10-07 15:15:00
10:34 AM,42.8,17.6,36,30.17,10.0,SSW,15.0,-,N/A,,Clear,210,2012-10-07 15:34:00
10:55 AM,44.6,15.8,31,30.16,10.0,SW,15.0,-,N/A,,Clear,220,2012-10-07 15:55:00
11:15 AM,44.6,12.2,27,30.15,10.0,SSW,12.7,-,N/A,,Clear,200,2012-10-07 16:15:00
11:35 AM,46.4,12.2,25,30.15,10.0,SW,13.8,19.6,N/A,,Clear,220,2012-10-07 16:35:00
11:55 AM,46.4,14.0,27,30.14,10.0,SW,13.8,19.6,N/A,,Clear,220,2012-10-07 16:55:00
12:14 PM,48.2,14.0,25,30.12,10.0,SSW,13.8,20.7,N/A,,Clear,200,2012-10-07 17:14:00
12:35 PM,48.2,12.2,24,30.12,10.0,SSW,15.0,19.6,N/A,,Clear,200,2012-10-07 17:35:00
12:55 PM,48.2,12.2,24,30.10,10.0,SSW,11.5,18.4,N/A,,Clear,210,2012-10-07 17:55:00
1:15 PM,51.8,10.4,19,30.09,10.0,South,9.2,19.6,N/A,,Clear,190,2012-10-07 18:15:00
1:31 PM,51.8,10.4,19,30.07,10.0,SSW,10.4,27.6,N/A,,Clear,210,2012-10-07 18:31:00
1:52 PM,51.8,10.4,19,30.06,10.0,SW,17.3,23.0,N/A,,Clear,220,2012-10-07 18:52:00
2:15 PM,53.6,12.2,19,30.04,10.0,SW,15.0,25.3,N/A,,Clear,220,2012-10-07 19:15:00
2:35 PM,53.6,12.2,19,30.03,10.0,WSW,15.0,23.0,N/A,,Clear,240,2012-10-07 19:35:00
2:55 PM,53.6,10.4,18,30.02,10.0,SW,15.0,24.2,N/A,,Clear,220,2012-10-07 19:55:00
3:15 PM,55.4,8.6,15,30.01,10.0,WSW,13.8,24.2,N/A,,Clear,240,2012-10-07 20:15:00
3:35 PM,53.6,8.6,16,30.01,10.0,SSW,11.5,23.0,N/A,,Clear,200,2012-10-07 20:35:00
3:55 PM,55.4,8.6,15,30.00,10.0,SW,15.0,-,N/A,,Clear,230,2012-10-07 20:55:00
4:14 PM,53.6,8.6,16,29.99,10.0,WSW,15.0,21.9,N/A,,Clear,240,2012-10-07 21:14:00
4:35 PM,53.6,8.6,16,29.98,10.0,SSW,5.8,-,N/A,,Clear,200,2012-10-07 21:35:00
4:54 PM,55.4,8.6,15,29.98,10.0,SW,12.7,-,N/A,,Clear,220,2012-10-07 21:54:00
5:15 PM,53.6,10.4,18,29.97,10.0,SW,12.7,-,N/A,,Clear,220,2012-10-07 22:15:00
5:35 PM,53.6,8.6,16,29.96,10.0,Calm,Calm,-,N/A,,Clear,0,2012-10-07 22:35:00
5:55 PM,53.6,10.4,18,29.96,10.0,SW,10.4,-,N/A,,Clear,220,2012-10-07 22:55:00
6:15 PM,51.8,12.2,21,-9999,10.0,SSW,9.2,-,N/A,,Clear,210,2012-10-07 23:15:00
6:35 PM,51.8,12.2,21,29.95,10.0,Calm,Calm,-,N/A,,Clear,0,2012-10-07 23:35:00
6:54 PM,48.2,10.4,22,29.95,10.0,SSW,3.5,-,N/A,,Clear,210,2012-10-07 23:54:00
7:15 PM,46.4,12.2,25,29.95,10.0,Calm,Calm,-,N/A,,Clear,0,2012-10-08 00:15:00
7:55 PM,44.6,12.2,27,29.94,10.0,Calm,Calm,-,N/A,,Clear,0,2012-10-08 00:55:00
8:15 PM,44.6,12.2,27,29.94,10.0,Calm,Calm,-,N/A,,Clear,0,2012-10-08 01:15:00
8:35 PM,42.8,12.2,29,29.94,10.0,Calm,Calm,-,N/A,,Clear,0,2012-10-08 01:35:00
8:54 PM,42.8,12.2,29,29.94,10.0,Calm,Calm,-,N/A,,Clear,0,2012-10-08 01:54:00
9:15 PM,42.8,14.0,31,29.93,10.0,Calm,Calm,-,N/A,,Clear,0,2012-10-08 02:15:00
9:34 PM,41.0,15.8,36,29.93,10.0,SSE,9.2,-,N/A,,Clear,160,2012-10-08 02:34:00
9:55 PM,42.8,15.8,34,29.93,10.0,SSE,9.2,-,N/A,,Mostly Cloudy,160,2012-10-08 02:55:00
10:15 PM,42.8,17.6,36,29.92,10.0,SSE,9.2,-,N/A,,Overcast,160,2012-10-08 03:15:00
10:35 PM,39.2,17.6,42,29.92,10.0,Calm,Calm,-,N/A,,Scattered Clouds,0,2012-10-08 03:35:00
10:55 PM,41.0,17.6,39,29.91,10.0,South,10.4,-,N/A,,Clear,180,2012-10-08 03:55:00
11:15 PM,39.2,17.6,42,29.91,10.0,South,10.4,-,N/A,,Clear,180,2012-10-08 04:15:00
11:34 PM,39.2,17.6,42,29.90,10.0,Calm,Calm,-,N/A,,Clear,0,2012-10-08 04:34:00
11:55 PM,39.2,17.6,42,29.89,10.0,South,10.4,-,N/A,,Clear,190,2012-10-08 04:55:00